User: anonymous   Login
Location: Columbia
(38.9520°N, 92.3340°W)
Time: 11:01:51
(UTC-06:00)
Language:

Iridium 22 - Orbit

View from above orbital plane
View from above orbital plane
View from above satellite
View from above satellite

Ground track
Ground track

The orbit data is extracted from the following two-line orbital elements,

1 24907U 97043E   15029.53574881  .00000380  00000-0  12849-3 0  1533
2 24907 086.3947 259.5077 0001958 101.9405 302.3952 14.34213745913189
Epoch (UTC): 29 January 2015 12:51:28
Eccentricity: 0.0001958
inclination: 86.3947°
perigee height: 776 km
apogee height: 779 km
right ascension of ascending node: 259.5077°
argument of perigee: 101.9405°
revolutions per day: 14.34213745
mean anomaly at epoch: 302.3952°
orbit number at epoch: 91318

The dashed part of the orbit path shows where the satellite is in the earth's shadow,  

DLR